User: anonymous
Location: Nebraska Star Party
(42.6000°N, 100.8833°W)
Time: 06:06:33
(UTC-05:00)
Language:

Iridium 37 - Orbit

View from above orbital plane
View from above orbital plane
View from above satellite
View from above satellite

Ground track
Ground track

The orbit data is extracted from the following two-line orbital elements,

1 24968U 97056D   14210.46565009  .00000022  00000-0  70861-6 0  8956
2 24968 086.3945 039.3063 0002120 103.7365 256.4067 14.34217601881501
Epoch (UTC): 29 July 2014 11:10:32
Eccentricity: 0.0002120
inclination: 86.3945°
perigee height: 776 km
apogee height: 779 km
right ascension of ascending node: 39.3063°
argument of perigee: 103.7365°
revolutions per day: 14.34217601
mean anomaly at epoch: 256.4067°
orbit number at epoch: 88150

The dashed part of the orbit path shows where the satellite is in the earth's shadow,  

DLR